Mountain Home, AR

10:24 AM CST on December 12, 2019 (GMT -0600)
Baxter County Regional

Weather History for KBPK - October, 2019

Change the Weather History Date:

Tuesday, October 15, 2019

  Actual Average (WUND) Record (WUND)
Temperature  
Mean Temperature 64 °F -  
Max Temperature 73 °F - - (-1)
Min Temperature 54 °F - - (-1)
Degree Days  
Heating Degree Days 2    
Growing Degree Days 14 (Base 50)    
Moisture  
Dew Point 61 °F    
Average Humidity 91    
Maximum Humidity 100    
Minimum Humidity 76    
Precipitation  
Precipitation 0.48 in - - ()
Sea Level Pressure  
Sea Level Pressure 29.91 in    
Wind  
Wind Speed 4 mph (South)    
Max Wind Speed 8 mph    
Max Gust Speed -    
Visibility 9 miles    
Events Fog , Rain , Thunderstorm    
Averages and records for this station are not official NWS values.
T = Trace of Precipitation, MM = Missing Value Source: NWS Daily Summary

Daily Weather History Graph

Daily Weather History Graph

Search for Another Location

Airport or City:

Astronomy

Oct. 15, 2019 Rise Set
Actual Time 7:16 AM CDT 6:33 PM CDT
Civil Twilight 6:50 AM CDT 6:59 PM CDT
Nautical Twilight 6:20 AM CDT 7:29 PM CDT
Astronomical Twilight 5:51 AM CDT 7:59 PM CDT
Moon 7:56 PM CDT (10/15) 8:46 AM CDT (10/15)
Length of Visible Light 12h 09m
Length of Day
11h 17m
Full, 97% of the Moon is Illuminated
Oct 15
Full
Oct 21
Last Quarter
Oct 27
New
Nov 4
First Quarter
Nov 12
Full

Hourly Weather History & Observations

Time (CDT) Temp. Dew Point Humidity Pressure Visibility Wind Dir Wind Speed Gust Speed Precip Events Conditions
12:53 AM 55.0 °F 50.0 °F 83% 29.99 in 10.0 mi South 6.9 mph - N/A   Clear
2:53 AM 54.0 °F 51.1 °F 90% 29.96 in 10.0 mi SSE 3.5 mph - N/A   Partly Cloudy
3:21 AM 55.9 °F 52.0 °F 87% 29.96 in 10.0 mi South 5.8 mph - N/A   Overcast
3:53 AM 57.0 °F 53.1 °F 87% 29.94 in 10.0 mi South 5.8 mph - N/A   Overcast
4:05 AM 57.9 °F 54.0 °F 87% 29.95 in 10.0 mi South 5.8 mph - N/A   Overcast
4:36 AM 57.9 °F 54.0 °F 87% 29.95 in 10.0 mi SSE 3.5 mph - N/A   Overcast
4:53 AM 57.9 °F 55.0 °F 90% 29.93 in 10.0 mi Calm Calm - N/A   Overcast
5:39 AM 57.0 °F 55.0 °F 93% 29.95 in 10.0 mi SE 3.5 mph - N/A   Scattered Clouds
5:53 AM 55.9 °F 55.0 °F 97% 29.93 in 10.0 mi SE 3.5 mph - N/A   Clear
6:32 AM 55.0 °F 55.0 °F 100% 29.96 in 10.0 mi Calm Calm - N/A   Mostly Cloudy
6:53 AM 57.0 °F 55.9 °F 96% 29.94 in 10.0 mi ESE 3.5 mph - N/A   Overcast
7:53 AM 57.9 °F 57.0 °F 97% 29.94 in 10.0 mi South 3.5 mph - N/A   Mostly Cloudy
8:35 AM 59.0 °F 57.9 °F 96% 29.95 in 10.0 mi South 5.8 mph - N/A   Overcast
8:53 AM 60.1 °F 59.0 °F 96% 29.94 in 10.0 mi South 6.9 mph - N/A   Overcast
9:09 AM 62.1 °F 59.0 °F 90% 29.94 in 10.0 mi South 6.9 mph - N/A   Mostly Cloudy
9:53 AM 64.9 °F 61.0 °F 87% 29.93 in 10.0 mi SW 6.9 mph - N/A   Scattered Clouds
10:53 AM 66.9 °F 62.1 °F 84% 29.93 in 10.0 mi SW 8.1 mph - N/A   Overcast
11:11 AM 68.0 °F 63.0 °F 84% 29.94 in 10.0 mi SSW 6.9 mph - N/A   Overcast
11:53 AM 70.0 °F 64.0 °F 81% 29.92 in 10.0 mi SSW 8.1 mph - N/A   Overcast
12:53 PM 73.0 °F 64.9 °F 76% 29.90 in 10.0 mi Variable 3.5 mph - N/A   Mostly Cloudy
1:44 PM 73.0 °F 64.9 °F 76% 29.89 in 10.0 mi West 6.9 mph - 0.00 in   Mostly Cloudy
1:51 PM 71.6 °F 64.4 °F 78% 29.88 in 10.0 mi Variable 4.6 mph - 0.00 in   Mostly Cloudy
1:53 PM 73.0 °F 66.0 °F 79% 29.87 in 10.0 mi Variable 4.6 mph - 0.00 in   Mostly Cloudy
2:53 PM 73.9 °F 66.0 °F 76% 29.84 in 10.0 mi Variable 5.8 mph - N/A   Overcast
3:48 PM 73.4 °F 66.2 °F 78% 29.86 in 10.0 mi Calm Calm - N/A   Overcast
3:53 PM 73.9 °F 66.9 °F 79% 29.84 in 10.0 mi Calm Calm - N/A   Overcast
4:19 PM 73.9 °F 66.9 °F 79% 29.85 in 10.0 mi Calm Calm - N/A   Overcast
4:53 PM 72.0 °F 66.9 °F 84% 29.85 in 3.0 mi Calm Calm - 0.04 in Rain Light Rain
4:56 PM 71.1 °F 68.0 °F 90% 29.86 in 0.8 mi NNE 3.5 mph - 0.13 in Rain Heavy Rain
4:58 PM 70.0 °F 68.0 °F 93% 29.86 in 0.5 mi Variable 4.6 mph - 0.20 in Fog , Rain , Thunderstorm Heavy Thunderstorms and Rain
5:07 PM 68.0 °F 68.0 °F 100% 29.85 in 1.0 mi Calm Calm - 0.29 in Rain , Thunderstorm Heavy Thunderstorms and Rain
5:12 PM 69.1 °F 69.1 °F 100% 29.85 in 4.0 mi Calm Calm - 0.29 in Rain , Thunderstorm Light Thunderstorms and Rain
5:18 PM 69.1 °F 69.1 °F 100% 29.85 in 10.0 mi Calm Calm - 0.29 in Rain , Thunderstorm Light Rain
5:42 PM 69.1 °F 69.1 °F 100% 29.85 in 10.0 mi Calm Calm - 0.30 in   Mostly Cloudy
5:53 PM 69.1 °F 69.1 °F 100% 29.84 in 10.0 mi Calm Calm - 0.30 in   Mostly Cloudy
6:02 PM 69.1 °F 69.1 °F 100% 29.85 in 9.0 mi Calm Calm - N/A   Overcast
6:19 PM 68.0 °F 68.0 °F 100% 29.85 in 10.0 mi Calm Calm - N/A   Overcast
6:53 PM 66.9 °F 66.9 °F 100% 29.83 in 4.0 mi Calm Calm - N/A   Mostly Cloudy
7:14 PM 66.9 °F 66.9 °F 100% 29.85 in 9.0 mi Calm Calm - N/A   Overcast
7:24 PM 66.9 °F 66.9 °F 100% 29.86 in 9.0 mi Calm Calm - N/A Thunderstorm Thunderstorm
7:38 PM 66.9 °F 66.9 °F 100% 29.89 in 2.5 mi North - - 0.08 in Rain , Thunderstorm Heavy Thunderstorms and Rain
7:49 PM 64.4 °F 64.4 °F 100% 29.90 in 3.0 mi Variable 4.6 mph - 0.14 in Rain , Thunderstorm Heavy Thunderstorms and Rain
7:53 PM 64.9 °F 64.0 °F 97% 29.88 in 5.0 mi NE 5.8 mph - 0.14 in Rain , Thunderstorm Light Thunderstorms and Rain
8:03 PM 64.0 °F 63.0 °F 96% 29.90 in 10.0 mi Variable 4.6 mph - 0.01 in Rain Light Rain
8:22 PM 63.0 °F 63.0 °F 100% 29.91 in 10.0 mi Variable 4.6 mph - 0.01 in   Mostly Cloudy
9:03 PM 61.0 °F 59.0 °F 93% 29.96 in 10.0 mi North 4.6 mph - N/A   Overcast
9:26 PM 59.0 °F 54.0 °F 83% 29.98 in 10.0 mi Variable 6.9 mph - 0.00 in Rain Light Rain
9:53 PM 57.0 °F 54.0 °F 89% 29.98 in 10.0 mi Variable 5.8 mph - 0.00 in   Mostly Cloudy
10:53 PM 55.0 °F 52.0 °F 89% 29.99 in 10.0 mi Variable 4.6 mph - N/A   Overcast
11:53 PM 54.0 °F 48.0 °F 80% 30.01 in 10.0 mi North 4.6 mph - N/A   Clear